Regional Weather Roundup
Issued by NWS

Home | Current Version | Previous Version | Text Only | Print | Product List | Glossary Off
Versions: 1 2 3 4 5 6 7 8 9 10 11 12 13 14 15 16 17 18 19 20 21 22 23 24 25 26 27 28 29 30 31 32 33 34 35 36 37 38 39 40 41 42 43 44 45 46 47 48 49 50

000
ASUS45 KTFX 170719
RWRMT
MONTANA HOURLY WEATHER ROUNDUP
NATIONAL WEATHER SERVICE GREAT FALLS MT
119 AM MDT WED SEP 17 2014

NOTE: "FAIR" INDICATES FEW OR NO CLOUDS BELOW 12000 FEET WITH NO
SIGNIFICANT WEATHER AND/OR OBSTRUCTIONS TO VISIBILITY.

* THESE STATIONS ARE NOT UNDER NWS QUALITY CONTROL. THEY DO NOT
   REPORT WEATHER SUCH AS PRECIPITATION OR FOG.

MTZ001>007-043-170800-
WEST OF THE DIVIDE
CITY           SKY/WX    TMP DP  RH WIND       PRES   REMARKS
KALISPELL      MOCLDY    50  46  86 N3        29.90S
MISSOULA       PTCLDY    57  43  60 CALM      29.94R
BUTTE          PTCLDY    46  39  77 S6        30.08S
MULLAN PASS    PTCLDY    63  37  38 S5        30.06S
* ESSEX        N/A       53  45  74 NE1        N/A
* LINCOLN      N/A       48  40  74 NW2        N/A
* LOOKOUT PASS N/A       58  38  47 SE1        N/A
* POLSON       N/A       60  40  48 N/A        N/A
* RONAN APT    CLOUDY    55  45  69 N/A        N/A
* SEELEY LAKE  N/A       48  40  74 N/A        N/A
* THOMP F APT  MOCLDY    62  35  37 N9         N/A
$$

MTZ008-052>055-170800-
SOUTHWEST MONTANA
CITY           SKY/WX    TMP DP  RH WIND       PRES   REMARKS
BOZEMAN        TSTM      57  46  67 SW12      30.03R
DILLON         PTCLDY    55  46  72 S9        30.04S
W YELLOWSTONE  PTCLDY    39  37  93 CALM      30.17S
* THREE FORKS  PTCLDY    48  48 100 N/A        N/A
* BOULDER HILL N/A       55  43  64 S9         N/A
* MONIDA PASS  N/A       46  42  86 W6         N/A
* RAYNOLDS PAS N/A       46  46 100 VRB14      N/A
* WHITEHALL    N/A       53  42  66 W3G9       N/A
* WISE RIVER   N/A       49  38  66 S1G6       N/A
$$

MTZ009>010-012-014-046-048-049-054-170800-
EAST SLOPES AND CENTRAL MONTANA
CITY           SKY/WX    TMP DP  RH WIND       PRES   REMARKS
CUT BANK       CLOUDY    55  43  64 NW5       29.93R
GREAT FALLS    MOCLDY    59  43  56 SW5       29.92S
HELENA         MOCLDY    63  52  68 S8        29.96F
MALMSTROM AFB  MOCLDY    64  43  47 W8        29.92S
* CONRAD       CLOUDY    54  46  74 N/A        N/A
* EAST GLACIER N/A       58  40  51 N1         N/A
* MONARCH      N/A       56  37  49 S5         N/A
* PENDROY      N/A       61  41  48 NW10       N/A
* ROGERS PASS  N/A       57  41  55 W2         N/A
* SAINT MARY   N/A       50  43  77 SE2        N/A
* SWEET GRASS  N/A       62  38  41 SW8        N/A
* WHITE SULPH  N/A       57  43  60 NE7G12     N/A
$$

MTZ011-013-016-021-035-040-045-047-050-051-170800-
NORTH CENTRAL MONTANA
CITY           SKY/WX    TMP DP  RH WIND       PRES   REMARKS
HAVRE          CLOUDY    57  48  72 NE12      29.87R
LEWISTOWN      CLOUDY    55  43  64 SE6       29.96S
* FORT BENTON  CLOUDY    61  48  62 SW5       29.89S
* CHESTER      N/A       54  44  69 E2         N/A
* DENTON       N/A       56  47  72 S4         N/A
* GEYSER       N/A       61  47  60 S9         N/A
* JUDITH GAP   N/A       54  46  74 SE6        N/A
* LOMA         N/A       61  47  60 E5         N/A
$$

MTZ017>020-022>027-061-062-170800-
NORTHEAST MONTANA
CITY           SKY/WX    TMP DP  RH WIND       PRES   REMARKS
GLASGOW        PTCLDY    54  39  57 E10       29.90S
JORDAN         MOCLDY    48  46  93 W5        29.91S
SIDNEY         PTCLDY    43  37  79 NW3       29.95S
WOLF POINT     PTCLDY    46  37  71 CALM      29.91F
* BEAVER HILL  N/A       56  44  64 SE11       N/A
* CIRCLE       N/A       54  43  67 N/A        N/A
* LINDSAY DVD  N/A       56  44  64 NE1        N/A
* NAVAJO       N/A       53  36  53 S7         N/A
* SACO         N/A       53  45  74 E6         N/A
$$

MTZ028>042-056>058-170800-
SOUTHCENTRAL AND SOUTHEAST MONTANA
CITY           SKY/WX    TMP DP  RH WIND       PRES   REMARKS
BAKER          PTCLDY    48  45  89 E3        29.96S
BILLINGS       PTCLDY    63  43  48 SW10      29.95R
LIVINGSTON     PTCLDY    57  43  60 N6        30.01F
MILES CITY     CLEAR     57  45  64 N6        29.91F
* LAUREL APT   PTCLDY    61  41  48 N/A        N/A
* ROUNDUP APT  PTCLDY    54  45  72 N/A        N/A
* ALZADA       N/A       52  43  72 N/A        N/A
* HYSHAM       N/A       70  41  35 SE7        N/A
* LAME DEER    N/A       64  41  43 S8         N/A
* REED POINT   N/A       53  47  80 W2         N/A
* ROSCOE HILL  N/A       63  37  38 S22G30     N/A
$$

REGIONAL REPORTS...DAKOTAS
CITY           SKY/WX    TMP DP  RH WIND       PRES   REMARKS
WILLISTON      HAZE      43  37  79 CALM      29.93S
DICKINSON      PTCLDY    50  41  71 CALM      29.93F
BEACH          N/A       45  45 100 SE5       29.96R
CROSBY         CLEAR     48  43  83 S9        29.93R
TIOGA          CLEAR     37  37 100 CALM      29.97S
WATFORD CITY   CLEAR     37  36  96 SW3       29.93S
BISMARCK       CLEAR     46  45  96 CALM      29.94S
GRAND FORKS    CLEAR     48  43  83 S5        29.90S
FARGO          CLEAR     55  46  72 S6        29.90F
BUFFALO SD     PTCLDY    57  45  64 NE3       29.89R
RAPID CITY     CLEAR     54  45  72 W7        29.95F
$$

REGIONAL REPORTS...WYOMING/IDAHO/WASHINGTON
CITY           SKY/WX    TMP DP  RH WIND       PRES   REMARKS
GILLETTE       MOCLDY    55  43  64 S5        30.01S
SHERIDAN       MOCLDY    57  45  64 CALM      29.99R
CODY           PTCLDY    55  43  64 CALM      30.06F
YELLOWSTONE LA PTCLDY    43  37  79 CALM      30.26S
SALMON         CLEAR     50  43  77 CALM      29.99R
MULLAN PASS    PTCLDY    63  37  38 S5        30.06S
SAND POINT     PTCLDY    50  50 100 CALM      29.86R
SPOKANE        PTCLDY    66  36  33 SE5       29.84R
$$

REGIONAL REPORTS...ALBERTA
CITY           SKY/WX    TMP DP  RH WIND       PRES   REMARKS
CALGARY        N/A       48  41  77 NW5       29.91S
LETHBRIDGE     CLEAR     45  41  86 SW8       29.87S
MEDICINE HAT   CLEAR     50  46  86 VRB2      29.86R
EDMONTON       PTCLDY    43  41  93 VRB2      29.85R
WATERTON GATE  N/A       57  41  55 SW5        N/A
CARDSTON       N/A       55  45  69 NW3        N/A
MILK RIVER     N/A       48  43  83 NW6        N/A
$$

REGIONAL REPORTS...SASKATCHEWAN
CITY           SKY/WX    TMP DP  RH WIND       PRES   REMARKS
SWIFT CURRENT  CLEAR     50  41  71 SE8       29.90R
REGINA         N/A       50  43  77 NE7       29.92R
VAL MARIE      N/A       43  41  93 E2         N/A
ASSINIBOIA     N/A       48  43  83 SE5        N/A
CORONACH       N/A       43  39  86 SE3        N/A

$$




USA.gov is the U.S. government's official web portal to all federal, state and local government web resources and services.